NKS746 KDTW-KDFW

Flight info

Callsign NKS746
Flight time N/A
Altitude 30000
Route SNDRS3 BGHRT STL RZC FSM RRNET BRDJE5
Aircraft A320/M-SDE3FGHIRWY/LB1

Departure

Time 2026-05-06 04:40
Airport Detroit Metropolitan Wayne County Airport (KDTW)

Arrival

Time N/A
Airport Dallas Fort Worth International Airport (KDFW)
Time Latitude Longitude Altitude Speed Heading
2026-05-06 04:05 42.22723 -83.34810 665 ft 0 kts 108°
2026-05-06 04:28 42.22724 -83.34815 646 ft 3 kts 108°
2026-05-06 04:28 42.22732 -83.34849 648 ft 4 kts 115°
2026-05-06 04:29 42.22747 -83.34876 648 ft 4 kts 158°
2026-05-06 04:29 42.22768 -83.34877 646 ft 1 kts 208°
2026-05-06 04:29 42.22768 -83.34876 648 ft 0 kts 208°
2026-05-06 04:31 42.22759 -83.34883 649 ft 4 kts 208°
2026-05-06 04:32 42.22709 -83.34919 647 ft 12 kts 208°
2026-05-06 04:32 42.22622 -83.34983 646 ft 16 kts 208°
2026-05-06 04:32 42.22516 -83.35061 647 ft 18 kts 208°
2026-05-06 04:32 42.22413 -83.35172 646 ft 20 kts 232°
2026-05-06 04:33 42.22320 -83.35315 648 ft 20 kts 217°
2026-05-06 04:33 42.22224 -83.35388 646 ft 15 kts 210°
2026-05-06 04:33 42.22135 -83.35456 646 ft 16 kts 212°
2026-05-06 04:33 42.22038 -83.35535 646 ft 17 kts 210°
2026-05-06 04:34 42.21937 -83.35589 645 ft 15 kts 175°
2026-05-06 04:34 42.21850 -83.35524 646 ft 11 kts 149°
2026-05-06 04:34 42.21821 -83.35427 645 ft 13 kts 87°
2026-05-06 04:34 42.21826 -83.35294 645 ft 15 kts 89°
2026-05-06 04:35 42.21827 -83.35142 646 ft 17 kts 87°
2026-05-06 04:35 42.21830 -83.34976 646 ft 19 kts 90°
2026-05-06 04:35 42.21832 -83.34800 646 ft 15 kts 88°
2026-05-06 04:35 42.21836 -83.34668 646 ft 15 kts 88°
2026-05-06 04:36 42.21844 -83.34525 647 ft 15 kts 69°
2026-05-06 04:36 42.21932 -83.34445 646 ft 17 kts 27°
2026-05-06 04:36 42.22042 -83.34361 646 ft 19 kts 30°
2026-05-06 04:36 42.22165 -83.34272 647 ft 21 kts 30°
2026-05-06 04:37 42.22294 -83.34177 646 ft 22 kts 28°
2026-05-06 04:37 42.22420 -83.34085 648 ft 20 kts 28°
2026-05-06 04:37 42.22544 -83.33993 646 ft 20 kts 28°
2026-05-06 04:37 42.22660 -83.33909 646 ft 17 kts 27°
2026-05-06 04:38 42.22763 -83.33834 646 ft 17 kts 29°
2026-05-06 04:38 42.22847 -83.33773 645 ft 13 kts 33°
2026-05-06 04:38 42.22851 -83.33685 644 ft 11 kts 117°
2026-05-06 04:38 42.22786 -83.33653 645 ft 11 kts 192°
2026-05-06 04:39 42.22714 -83.33701 647 ft 9 kts 208°
2026-05-06 04:39 42.22709 -83.33704 647 ft 0 kts 209°
2026-05-06 04:39 42.22559 -83.33815 647 ft 61 kts 208°
2026-05-06 04:40 42.22007 -83.34220 646 ft 119 kts 208°
2026-05-06 04:40 42.21137 -83.34864 646 ft 164 kts 210°
2026-05-06 04:40 42.20104 -83.35617 1185 ft 167 kts 208°
2026-05-06 04:40 42.19056 -83.36345 1807 ft 174 kts 206°
2026-05-06 04:41 42.17876 -83.36842 2410 ft 181 kts 198°
2026-05-06 04:41 42.16599 -83.37341 2664 ft 203 kts 199°
2026-05-06 04:41 42.15155 -83.37903 2795 ft 231 kts 198°
2026-05-06 04:41 42.13508 -83.38519 3060 ft 258 kts 196°
2026-05-06 04:42 42.11729 -83.39150 3750 ft 268 kts 197°
2026-05-06 04:42 42.09928 -83.39820 4661 ft 270 kts 198°
2026-05-06 04:42 42.08120 -83.40520 5562 ft 270 kts 202°
2026-05-06 04:42 42.06506 -83.41710 6509 ft 262 kts 220°
2026-05-06 04:43 42.05048 -83.43173 6868 ft 260 kts 219°
2026-05-06 04:43 42.03591 -83.44601 6990 ft 259 kts 219°
2026-05-06 04:43 42.02135 -83.46015 7014 ft 258 kts 219°
2026-05-06 04:43 42.00682 -83.47423 7011 ft 257 kts 218°
2026-05-06 04:44 41.99236 -83.48827 7021 ft 256 kts 219°
2026-05-06 04:44 41.97800 -83.50255 7266 ft 260 kts 220°
2026-05-06 04:44 41.96372 -83.51729 8164 ft 258 kts 220°
2026-05-06 04:44 41.94950 -83.53211 9009 ft 260 kts 220°
2026-05-06 04:45 41.93514 -83.54706 9804 ft 263 kts 220°
2026-05-06 04:45 41.92052 -83.56222 10381 ft 273 kts 220°
2026-05-06 04:45 41.90491 -83.57843 10554 ft 295 kts 220°
2026-05-06 04:45 41.88805 -83.59596 10681 ft 318 kts 220°
2026-05-06 04:46 41.87008 -83.61457 10943 ft 333 kts 220°
2026-05-06 04:46 41.85154 -83.63363 11482 ft 338 kts 220°
2026-05-06 04:46 41.83275 -83.65285 12097 ft 342 kts 220°
2026-05-06 04:46 41.81378 -83.67224 12734 ft 345 kts 220°
2026-05-06 04:47 41.79467 -83.69179 13405 ft 345 kts 220°
2026-05-06 04:47 41.77554 -83.71136 14020 ft 347 kts 220°
2026-05-06 04:47 41.75632 -83.73103 14585 ft 349 kts 220°
2026-05-06 04:47 41.73700 -83.75083 15124 ft 351 kts 220°
2026-05-06 04:48 41.71756 -83.77072 15657 ft 353 kts 220°
2026-05-06 04:48 41.69781 -83.79047 16191 ft 356 kts 217°
2026-05-06 04:48 41.67655 -83.80790 16728 ft 360 kts 215°
2026-05-06 04:48 41.65504 -83.82520 17278 ft 362 kts 215°
2026-05-06 04:49 41.63336 -83.84260 17808 ft 365 kts 215°
2026-05-06 04:49 41.61154 -83.86011 18304 ft 367 kts 216°
2026-05-06 04:49 41.58955 -83.87774 18761 ft 370 kts 216°
2026-05-06 04:49 41.56740 -83.89550 19252 ft 372 kts 216°
2026-05-06 04:50 41.54517 -83.91328 19781 ft 373 kts 216°
2026-05-06 04:50 41.52290 -83.93108 20321 ft 373 kts 216°
2026-05-06 04:50 41.50061 -83.94890 20837 ft 374 kts 216°
2026-05-06 04:50 41.47828 -83.96677 21319 ft 375 kts 216°
2026-05-06 04:51 41.45590 -83.98464 21786 ft 376 kts 215°
2026-05-06 04:51 41.43375 -84.00230 22251 ft 376 kts 215°
2026-05-06 04:51 41.41095 -84.02047 22711 ft 377 kts 215°
2026-05-06 04:51 41.38873 -84.03817 23145 ft 377 kts 216°
2026-05-06 04:52 41.36622 -84.05612 23605 ft 377 kts 216°
2026-05-06 04:52 41.34367 -84.07410 23952 ft 379 kts 216°
2026-05-06 04:52 41.32098 -84.09214 24274 ft 381 kts 216°
2026-05-06 04:52 41.29815 -84.11025 24585 ft 383 kts 216°
2026-05-06 04:53 41.27591 -84.12966 24887 ft 381 kts 223°
2026-05-06 04:53 41.25683 -84.15380 25195 ft 378 kts 232°
2026-05-06 04:53 41.24161 -84.18217 25514 ft 377 kts 242°
2026-05-06 04:53 41.23052 -84.21378 25827 ft 379 kts 249°
2026-05-06 04:54 41.22087 -84.24640 26141 ft 380 kts 249°
2026-05-06 04:54 41.21110 -84.27916 26459 ft 382 kts 249°
2026-05-06 04:54 41.20125 -84.31197 26826 ft 382 kts 249°
2026-05-06 04:54 41.19142 -84.34466 27294 ft 380 kts 249°
2026-05-06 04:55 41.18161 -84.37715 27765 ft 379 kts 249°
2026-05-06 04:55 41.17183 -84.40959 28230 ft 377 kts 249°
2026-05-06 04:55 41.16210 -84.44185 28698 ft 376 kts 250°
2026-05-06 04:55 41.15240 -84.47402 29169 ft 375 kts 250°
2026-05-06 04:56 41.14276 -84.50608 29643 ft 373 kts 250°
2026-05-06 04:56 41.13313 -84.53809 29875 ft 374 kts 250°
2026-05-06 04:56 41.12335 -84.57045 29905 ft 381 kts 250°
2026-05-06 04:57 41.10374 -84.63631 29907 ft 385 kts 253°
2026-05-06 04:57 41.09138 -84.70532 29910 ft 385 kts 257°
2026-05-06 04:58 41.07972 -84.77461 29909 ft 385 kts 257°
2026-05-06 04:58 41.06782 -84.84494 29913 ft 398 kts 257°
2026-05-06 04:59 41.05559 -84.91675 29916 ft 400 kts 257°
2026-05-06 04:59 41.04329 -84.98874 29920 ft 401 kts 257°
2026-05-06 05:00 41.03098 -85.06074 29935 ft 401 kts 258°
2026-05-06 05:00 41.01868 -85.13248 29897 ft 399 kts 258°
2026-05-06 05:01 41.00631 -85.20403 29909 ft 398 kts 258°
2026-05-06 05:01 40.99393 -85.27551 29916 ft 398 kts 258°
2026-05-06 05:02 40.98153 -85.34687 29913 ft 398 kts 258°
2026-05-06 05:02 40.96905 -85.41821 29916 ft 398 kts 258°
2026-05-06 05:03 40.95657 -85.48939 29947 ft 396 kts 258°
2026-05-06 05:03 40.94415 -85.56007 29942 ft 394 kts 258°
2026-05-06 05:04 40.93181 -85.62994 29940 ft 392 kts 258°
2026-05-06 05:04 40.91936 -85.70014 29925 ft 392 kts 258°
2026-05-06 05:05 40.90691 -85.77020 29933 ft 391 kts 258°
2026-05-06 05:05 40.89437 -85.84011 29910 ft 391 kts 258°
2026-05-06 05:06 40.88301 -85.91029 29906 ft 390 kts 263°
2026-05-06 05:06 40.87556 -85.98132 29908 ft 390 kts 262°
2026-05-06 05:07 40.86795 -86.05231 29908 ft 390 kts 262°
2026-05-06 05:07 40.86027 -86.12325 29908 ft 390 kts 262°
2026-05-06 05:08 40.85258 -86.19422 29938 ft 390 kts 261°
2026-05-06 05:08 40.84484 -86.26509 29882 ft 389 kts 261°
2026-05-06 05:09 40.83712 -86.33570 29899 ft 388 kts 261°
2026-05-06 05:09 40.82940 -86.40616 29909 ft 387 kts 261°
2026-05-06 05:10 40.82164 -86.47653 29920 ft 387 kts 261°
2026-05-06 05:10 40.81380 -86.54678 29919 ft 387 kts 261°
2026-05-06 05:11 40.80588 -86.61705 29932 ft 387 kts 261°
2026-05-06 05:11 40.79790 -86.68731 29928 ft 387 kts 261°
2026-05-06 05:12 40.78997 -86.75763 29923 ft 388 kts 261°
2026-05-06 05:12 40.78203 -86.82798 29927 ft 388 kts 261°
2026-05-06 05:13 40.77395 -86.89832 29925 ft 388 kts 261°
2026-05-06 05:13 40.76584 -86.96863 29943 ft 388 kts 260°
2026-05-06 05:14 40.75763 -87.03919 29914 ft 390 kts 260°
2026-05-06 05:14 40.74930 -87.11012 29908 ft 392 kts 260°
2026-05-06 05:15 40.74098 -87.18125 29910 ft 393 kts 260°
2026-05-06 05:15 40.73264 -87.25248 29910 ft 393 kts 260°
2026-05-06 05:16 40.72414 -87.32374 29912 ft 394 kts 260°
2026-05-06 05:16 40.71561 -87.39509 29923 ft 394 kts 259°
2026-05-06 05:17 40.70707 -87.46650 29927 ft 395 kts 260°
2026-05-06 05:17 40.69850 -87.53796 29921 ft 395 kts 259°
2026-05-06 05:18 40.68983 -87.60945 29922 ft 395 kts 259°
2026-05-06 05:18 40.68109 -87.68089 29925 ft 395 kts 259°
2026-05-06 05:19 40.67236 -87.75237 29935 ft 396 kts 259°
2026-05-06 05:19 40.66366 -87.82351 29922 ft 396 kts 259°
2026-05-06 05:20 40.65432 -87.89555 29920 ft 396 kts 255°
2026-05-06 05:20 40.63081 -87.96084 29922 ft 400 kts 236°
2026-05-06 05:21 40.59430 -88.01588 29921 ft 402 kts 232°
2026-05-06 05:21 40.55713 -88.07093 29923 ft 403 kts 232°
2026-05-06 05:22 40.51994 -88.12601 29948 ft 403 kts 232°
2026-05-06 05:22 40.48268 -88.18098 29946 ft 403 kts 232°
2026-05-06 05:23 40.44535 -88.23583 29923 ft 401 kts 233°
2026-05-06 05:23 40.38978 -88.31758 29951 ft 399 kts 233°
2026-05-06 05:24 40.35281 -88.37179 29956 ft 398 kts 233°
2026-05-06 05:24 40.31580 -88.42589 29956 ft 398 kts 233°
2026-05-06 05:25 40.28505 -88.47073 29958 ft 398 kts 233°
2026-05-06 05:25 40.24807 -88.52466 29963 ft 398 kts 233°
2026-05-06 05:26 40.21109 -88.57845 29943 ft 397 kts 233°
2026-05-06 05:26 40.17424 -88.63202 29955 ft 396 kts 233°
2026-05-06 05:27 40.13746 -88.68547 29957 ft 395 kts 233°
2026-05-06 05:27 40.10063 -88.73876 29960 ft 395 kts 233°
2026-05-06 05:28 40.06382 -88.79193 29968 ft 395 kts 233°
2026-05-06 05:28 40.02698 -88.84508 29970 ft 395 kts 233°
2026-05-06 05:29 39.99007 -88.89833 29979 ft 396 kts 233°
2026-05-06 05:29 39.95320 -88.95151 29979 ft 395 kts 234°
2026-05-06 05:30 39.91630 -89.00452 29980 ft 394 kts 233°
2026-05-06 05:30 39.87957 -89.05689 29978 ft 394 kts 233°
2026-05-06 05:31 39.84268 -89.10959 29971 ft 394 kts 233°
2026-05-06 05:31 39.80560 -89.16266 29979 ft 394 kts 234°
2026-05-06 05:32 39.76904 -89.21494 29938 ft 394 kts 234°
2026-05-06 05:32 39.73212 -89.26757 29962 ft 394 kts 234°
2026-05-06 05:33 39.69513 -89.32010 29962 ft 394 kts 234°
2026-05-06 05:33 39.65807 -89.37256 29960 ft 394 kts 234°
2026-05-06 05:34 39.62106 -89.42497 29963 ft 394 kts 234°
2026-05-06 05:34 39.58401 -89.47733 29969 ft 394 kts 234°
2026-05-06 05:35 39.54692 -89.52967 29942 ft 394 kts 234°
2026-05-06 05:35 39.50973 -89.58197 29951 ft 395 kts 234°
2026-05-06 05:36 39.47255 -89.63420 29963 ft 395 kts 234°
2026-05-06 05:36 39.43537 -89.68647 29969 ft 394 kts 234°
2026-05-06 05:37 39.39823 -89.73868 29973 ft 394 kts 234°
2026-05-06 05:37 39.36096 -89.79078 29978 ft 395 kts 234°
2026-05-06 05:38 39.32367 -89.84272 29977 ft 394 kts 235°
2026-05-06 05:38 39.28644 -89.89454 29986 ft 393 kts 235°
2026-05-06 05:39 39.24936 -89.94633 29987 ft 393 kts 235°
2026-05-06 05:39 39.21225 -89.99806 30017 ft 393 kts 235°
2026-05-06 05:40 39.17512 -90.04954 30011 ft 392 kts 235°
2026-05-06 05:40 39.13802 -90.10089 30008 ft 391 kts 235°
2026-05-06 05:41 39.10095 -90.15205 29956 ft 390 kts 234°
2026-05-06 05:41 39.06395 -90.20310 29972 ft 390 kts 234°
2026-05-06 05:42 39.02702 -90.25412 29971 ft 389 kts 234°
2026-05-06 05:42 38.99011 -90.30506 29968 ft 389 kts 234°
2026-05-06 05:43 38.95311 -90.35582 29976 ft 389 kts 234°
2026-05-06 05:43 38.91608 -90.40654 30013 ft 389 kts 234°
2026-05-06 05:44 38.87914 -90.45712 29940 ft 388 kts 234°
2026-05-06 05:44 38.84249 -90.50778 29960 ft 386 kts 236°
2026-05-06 05:45 38.80735 -90.55964 29971 ft 385 kts 237°
2026-05-06 05:45 38.77261 -90.61182 29982 ft 385 kts 237°
2026-05-06 05:46 38.73757 -90.66366 29987 ft 385 kts 236°
2026-05-06 05:46 38.70231 -90.71523 29985 ft 385 kts 236°
2026-05-06 05:47 38.66701 -90.76672 30013 ft 385 kts 236°
2026-05-06 05:47 38.63171 -90.81810 29953 ft 384 kts 236°
2026-05-06 05:48 38.59641 -90.86956 29964 ft 385 kts 236°
2026-05-06 05:48 38.56109 -90.92101 29969 ft 385 kts 236°
2026-05-06 05:49 38.52577 -90.97238 29974 ft 385 kts 236°
2026-05-06 05:49 38.49042 -91.02375 29981 ft 385 kts 236°
2026-05-06 05:50 38.45495 -91.07494 29986 ft 385 kts 236°
2026-05-06 05:50 38.41947 -91.12614 29996 ft 385 kts 236°
2026-05-06 05:51 38.38406 -91.17729 30031 ft 385 kts 236°
2026-05-06 05:51 38.34866 -91.22827 30032 ft 383 kts 236°
2026-05-06 05:52 38.31338 -91.27915 30032 ft 383 kts 236°
2026-05-06 05:52 38.27805 -91.32987 30026 ft 383 kts 236°
2026-05-06 05:53 38.24273 -91.38050 30017 ft 382 kts 236°
2026-05-06 05:53 38.20744 -91.43105 30010 ft 382 kts 236°
2026-05-06 05:54 38.17214 -91.48160 29958 ft 382 kts 236°
2026-05-06 05:54 38.13680 -91.53209 29978 ft 382 kts 236°
2026-05-06 05:55 38.10142 -91.58254 29984 ft 382 kts 236°
2026-05-06 05:55 38.06597 -91.63286 29993 ft 383 kts 235°
2026-05-06 05:56 38.03070 -91.68282 29985 ft 382 kts 236°
2026-05-06 05:56 37.99530 -91.73315 29994 ft 382 kts 236°
2026-05-06 05:57 37.95987 -91.78342 29988 ft 382 kts 236°
2026-05-06 05:57 37.92437 -91.83360 29953 ft 382 kts 235°
2026-05-06 05:58 37.88883 -91.88376 29950 ft 383 kts 235°
2026-05-06 05:58 37.85299 -91.93423 29957 ft 383 kts 235°
2026-05-06 05:59 37.81736 -91.98431 29959 ft 383 kts 235°
2026-05-06 05:59 37.78176 -92.03443 29962 ft 383 kts 235°
2026-05-06 06:00 37.74616 -92.08453 29963 ft 383 kts 235°
2026-05-06 06:00 37.71069 -92.13417 29964 ft 383 kts 235°
2026-05-06 06:01 37.67471 -92.18444 29953 ft 384 kts 235°
2026-05-06 06:01 37.63886 -92.23450 29970 ft 384 kts 235°
2026-05-06 06:02 37.60302 -92.28450 29961 ft 384 kts 235°
2026-05-06 06:02 37.56712 -92.33447 29987 ft 384 kts 235°
2026-05-06 06:03 37.53124 -92.38438 30013 ft 384 kts 235°
2026-05-06 06:03 37.49532 -92.43420 30011 ft 384 kts 235°
2026-05-06 06:04 37.45936 -92.48389 30020 ft 384 kts 235°
2026-05-06 06:04 37.42337 -92.53372 29996 ft 386 kts 235°
2026-05-06 06:05 37.38730 -92.58375 30004 ft 386 kts 234°
2026-05-06 06:05 37.35114 -92.63362 30013 ft 386 kts 234°
2026-05-06 06:06 37.31488 -92.68339 30019 ft 386 kts 234°
2026-05-06 06:06 37.27890 -92.73276 30014 ft 385 kts 234°
2026-05-06 06:07 37.24863 -92.77433 30015 ft 385 kts 234°
2026-05-06 06:07 37.21252 -92.82392 30013 ft 385 kts 235°
2026-05-06 06:08 37.17054 -92.88143 29977 ft 385 kts 234°
2026-05-06 06:08 37.14014 -92.92289 29986 ft 386 kts 234°
2026-05-06 06:09 37.10383 -92.97244 29991 ft 386 kts 234°
2026-05-06 06:09 37.06750 -93.02205 29989 ft 386 kts 234°
2026-05-06 06:10 37.03114 -93.07158 30010 ft 386 kts 234°
2026-05-06 06:10 36.99468 -93.12098 30014 ft 386 kts 234°
2026-05-06 06:11 36.95825 -93.17031 30007 ft 386 kts 234°
2026-05-06 06:11 36.92189 -93.21963 29984 ft 386 kts 234°
2026-05-06 06:12 36.88539 -93.26901 29984 ft 387 kts 234°
2026-05-06 06:12 36.84878 -93.31842 29987 ft 388 kts 234°
2026-05-06 06:13 36.81218 -93.36789 29987 ft 388 kts 234°
2026-05-06 06:13 36.77550 -93.41725 29988 ft 388 kts 234°
2026-05-06 06:14 36.73875 -93.46659 29988 ft 388 kts 234°
2026-05-06 06:14 36.70212 -93.51586 29998 ft 388 kts 234°
2026-05-06 06:15 36.66528 -93.56536 29986 ft 391 kts 234°
2026-05-06 06:15 36.62814 -93.61497 29998 ft 392 kts 234°
2026-05-06 06:16 36.59096 -93.66457 30000 ft 392 kts 234°
2026-05-06 06:16 36.55380 -93.71411 30003 ft 392 kts 234°
2026-05-06 06:17 36.51664 -93.76360 30001 ft 391 kts 234°
2026-05-06 06:17 36.47948 -93.81303 30016 ft 391 kts 234°
2026-05-06 06:18 36.44266 -93.86188 30013 ft 391 kts 234°
2026-05-06 06:18 36.40554 -93.91118 29961 ft 391 kts 234°
2026-05-06 06:19 36.36845 -93.96038 29970 ft 391 kts 234°
2026-05-06 06:19 36.33118 -94.00969 29983 ft 392 kts 234°
2026-05-06 06:20 36.29386 -94.05896 29986 ft 392 kts 234°
2026-05-06 06:20 36.25424 -94.10540 29974 ft 405 kts 223°
2026-05-06 06:21 36.22852 -94.12156 29966 ft 422 kts 211°
2026-05-06 06:21 36.19948 -94.13007 29967 ft 440 kts 200°
2026-05-06 06:21 36.13827 -94.14071 29930 ft 441 kts 200°
2026-05-06 06:22 36.07753 -94.15120 29960 ft 441 kts 200°
2026-05-06 06:22 36.01727 -94.16178 29966 ft 441 kts 200°
2026-05-06 06:23 35.95617 -94.17260 29965 ft 441 kts 200°
2026-05-06 06:23 35.89546 -94.18323 29970 ft 440 kts 200°
2026-05-06 06:24 35.83482 -94.19386 29940 ft 440 kts 200°
2026-05-06 06:24 35.77453 -94.20444 29933 ft 440 kts 200°
2026-05-06 06:25 35.71426 -94.21494 29933 ft 440 kts 200°
2026-05-06 06:26 35.62302 -94.23077 29914 ft 438 kts 200°
2026-05-06 06:26 35.56307 -94.24118 29921 ft 438 kts 200°
2026-05-06 06:27 35.50281 -94.25159 29926 ft 437 kts 200°
2026-05-06 06:27 35.44271 -94.26206 29927 ft 436 kts 200°
2026-05-06 06:27 35.41326 -94.26916 29886 ft 424 kts 207°
2026-05-06 06:28 35.38633 -94.28207 29896 ft 409 kts 217°
2026-05-06 06:28 35.36260 -94.30027 29901 ft 398 kts 225°
2026-05-06 06:28 35.34188 -94.32227 29908 ft 393 kts 229°
2026-05-06 06:29 35.30102 -94.36687 29907 ft 394 kts 229°
2026-05-06 06:29 35.25992 -94.41127 29912 ft 394 kts 229°
2026-05-06 06:30 35.21883 -94.45562 29911 ft 394 kts 229°
2026-05-06 06:30 35.17776 -94.49998 29911 ft 394 kts 229°
2026-05-06 06:31 35.13668 -94.54436 29883 ft 395 kts 229°
2026-05-06 06:31 35.09548 -94.58877 29899 ft 395 kts 228°
2026-05-06 06:32 35.05433 -94.63319 29916 ft 394 kts 229°
2026-05-06 06:32 35.01318 -94.67746 29920 ft 394 kts 228°
2026-05-06 06:33 34.97206 -94.72159 29903 ft 394 kts 228°
2026-05-06 06:33 34.93095 -94.76571 29904 ft 394 kts 228°
2026-05-06 06:34 34.88982 -94.80981 29863 ft 394 kts 229°
2026-05-06 06:34 34.84865 -94.85384 29887 ft 394 kts 228°
2026-05-06 06:35 34.80733 -94.89777 29890 ft 395 kts 228°
2026-05-06 06:35 34.76522 -94.94093 29885 ft 396 kts 227°
2026-05-06 06:36 34.72290 -94.98372 29895 ft 395 kts 227°
2026-05-06 06:36 34.68101 -95.02622 29902 ft 395 kts 227°
2026-05-06 06:37 34.63895 -95.06903 29907 ft 394 kts 227°
2026-05-06 06:37 34.59700 -95.11184 29854 ft 394 kts 227°
2026-05-06 06:38 34.55495 -95.15468 29868 ft 395 kts 227°
2026-05-06 06:38 34.51276 -95.19742 29870 ft 395 kts 227°
2026-05-06 06:39 34.47052 -95.24012 29876 ft 395 kts 227°
2026-05-06 06:39 34.42827 -95.28278 29880 ft 395 kts 227°
2026-05-06 06:40 34.38603 -95.32539 29881 ft 395 kts 227°
2026-05-06 06:40 34.34376 -95.36791 29860 ft 395 kts 227°
2026-05-06 06:41 34.30139 -95.41041 29865 ft 396 kts 227°
2026-05-06 06:41 34.28015 -95.43173 29870 ft 397 kts 227°